sat.trackr.live / text

‹ back to catalog

SKYSAT-B

NORAD 40072 · 2014-037D

PAYLOAD ACTIVE UNKNOWN

§ Identity

Operator
Country
US
Launch date
2014-07-08
Launch site
TYMSC
Launch vehicle
Mass (kg)
RCS (m²)
0.36

Purposes: earth_obs

External: N2YO · Heavens-Above · Gunter

§ Orbital elements

Epoch: 2026-05-24T20:35:56.250816Z

Period
96.78 min
Inclination
98.3825°
Eccentricity
0.0005697
Mean motion
14.87955317 rev/d
Perigee alt
600.3 km
Apogee alt
608.3 km
Semi-major
6,982.5 km
B*
1.2732e-4
RAAN
102.4969°
Arg perigee
8.6901°
Mean anomaly
351.4411°
Rev number
64,249

§ Raw data

SKYSAT-B1 40072U 14037D   26144.85828994  .00001106  00000+0  12732-3 0  99932 40072  98.3825 102.4969 0005697   8.6901 351.4411 14.87955317642496

JSON: /api/v1/satellites/40072 · /tle

For live sub-satellite position, see the globe view (requires WebGL).

§ Visibility from observer

Set your observer location to see the next 7 days of passes ≥ 10°. The values pass through the URL so the page stays shareable.

No JS? Fill the form by hand. The geolocation button needs JavaScript.